Change the Weather History Date:

Sunday, December 30, 2012

  Actual Average Record
Temperature  
Mean Temperature 32 °F -  
Max Temperature 39 °F 47 °F 73 °F (2004)
Min Temperature 25 °F 27 °F 10 °F (2014)
Degree Days  
Heating Degree Days 33    
Moisture  
Dew Point 23 °F    
Average Humidity 68    
Maximum Humidity 78    
Minimum Humidity 55    
Precipitation  
Precipitation 0.00 in - - ()
Sea Level Pressure  
Sea Level Pressure 30.25 in    
Wind  
Wind Speed 15 mph (South)    
Max Wind Speed 23 mph    
Max Gust Speed 29 mph    
Visibility 10 miles    
Events      
Averages and records for this station are not official NWS values.
T = Trace of Precipitation, MM = Missing Value Source: NWS Daily Summary

Daily Weather History Graph

Daily Weather History Graph

Search for Another Location

Airport or City:

Trip Planner

Search our weather history database for the weather conditions in past years. The results will help you decide how hot, cold, wet, or windy it might be!

Date:

Astronomy

Dec. 30, 2012 Rise Set
Actual Time 7:45 AM CST 5:34 PM CST
Civil Twilight 7:17 AM CST 6:02 PM CST
Nautical Twilight 6:45 AM CST 6:34 PM CST
Astronomical Twilight 6:14 AM CST 7:04 PM CST
Moon 8:00 PM CST (12/30) 9:00 AM CST (12/30)
Length of Visible Light 10h 45m
Length of Day
9h 48m
Waning Gibbous, 95% of the Moon is Illuminated
Dec 30
Waning Gibbous
Jan 4
Last Quarter
Jan 11
New
Jan 18
First Quarter
Jan 26
Full

Hourly Weather History & Observations

Time (CST) Temp. Windchill Dew Point Humidity Pressure Visibility Wind Dir Wind Speed Gust Speed Precip Events Conditions
12:53 AM 28.9 °F 18.6 °F 21.0 °F 72% 30.36 in 10.0 mi South 12.7 mph - N/A   Clear
1:53 AM 28.9 °F 18.2 °F 19.9 °F 69% 30.35 in 10.0 mi South 13.8 mph - N/A   Clear
2:53 AM 26.1 °F 14.5 °F 19.9 °F 78% 30.35 in 10.0 mi South 13.8 mph - N/A   Clear
3:53 AM 25.0 °F 14.8 °F 19.0 °F 78% 30.33 in 10.0 mi South 10.4 mph - N/A   Clear
4:53 AM 28.0 °F 17.0 °F 19.9 °F 72% 30.31 in 10.0 mi South 13.8 mph - N/A   Clear
5:53 AM 28.0 °F 17.5 °F 19.9 °F 72% 30.32 in 10.0 mi South 12.7 mph - N/A   Clear
6:53 AM 26.1 °F 16.2 °F 19.0 °F 75% 30.34 in 10.0 mi South 10.4 mph - N/A   Clear
7:53 AM 26.1 °F 16.2 °F 19.0 °F 75% 30.33 in 10.0 mi SSE 10.4 mph - N/A   Clear
8:53 AM 28.9 °F 18.2 °F 21.0 °F 72% 30.33 in 10.0 mi South 13.8 mph - N/A   Clear
9:53 AM 30.9 °F 20.7 °F 23.0 °F 72% 30.34 in 10.0 mi South 13.8 mph - N/A   Clear
10:53 AM 34.0 °F 23.4 °F 25.0 °F 70% 30.33 in 10.0 mi South 17.3 mph - N/A   Clear
11:53 AM 37.9 °F 27.1 °F 25.0 °F 60% 30.29 in 10.0 mi South 23.0 mph - N/A   Clear
12:53 PM 39.0 °F 29.9 °F 24.1 °F 55% 30.24 in 10.0 mi South 17.3 mph 25.3 mph N/A   Clear
1:53 PM 39.0 °F 29.3 °F 25.0 °F 57% 30.21 in 10.0 mi South 19.6 mph 26.5 mph N/A   Clear
2:53 PM 37.9 °F 27.9 °F 24.1 °F 57% 30.19 in 10.0 mi South 19.6 mph 26.5 mph N/A   Clear
3:53 PM 37.9 °F 27.9 °F 26.1 °F 62% 30.18 in 10.0 mi South 19.6 mph - N/A   Clear
4:53 PM 36.0 °F 26.7 °F 27.0 °F 70% 30.18 in 10.0 mi South 15.0 mph - N/A   Clear
5:53 PM 35.1 °F 25.9 °F 26.1 °F 70% 30.17 in 10.0 mi SSE 13.8 mph - N/A   Clear
6:53 PM 35.1 °F 26.9 °F 25.0 °F 67% 30.18 in 10.0 mi SSE 11.5 mph - N/A   Clear
7:53 PM 35.1 °F 25.2 °F 24.1 °F 64% 30.18 in 10.0 mi SSE 16.1 mph - N/A   Clear
8:53 PM 36.0 °F 25.6 °F 24.1 °F 62% 30.15 in 10.0 mi SSE 18.4 mph - N/A   Clear
9:53 PM 35.1 °F 25.9 °F 24.1 °F 64% 30.15 in 10.0 mi South 13.8 mph - N/A   Clear
10:53 PM 35.1 °F 23.3 °F 24.1 °F 64% 30.12 in 10.0 mi South 23.0 mph - N/A   Clear
11:53 PM 35.1 °F 23.3 °F 25.0 °F 67% 30.11 in 10.0 mi South 23.0 mph 28.8 mph N/A   Clear